CAPE
1522 1419 1379 1314 1336 1430 911 1370 1320 1406 1485 1279 1768 1809 1516 1294 1381 1667 1717 1735 1904 1428 1130 901 751 998 621 717 564 907 646 284 303 309 380 714 1374 1344 962 1459 904 967 0
1452 1412 1532 1509 1362 1370 1257 938 1159 1359 1659 1921 1471 1767 1475 1375 1339 1705 1645 1111 1381 1312 1227 957 807 619 1209 1322 979 833 463 384 389 629 670 512 864 501 1331 1388 1115 489 29
1375 1399 1447 1666 1531 1397 1366 1467 1049 1355 1424 1534 1814 1540 1471 1544 1628 1459 1655 1437 1222 1226 810 813 996 812 847 907 1335 908 643 1013 985 486 630 663 734 1060 776 661 737 779 137
1330 1296 1568 1631 1713 1582 1543 1676 1605 1633 1517 1537 1464 1669 1347 1301 1560 1332 1659 1538 1454 1395 911 895 1091 866 761 1149 1272 1007 1399 1229 692 719 655 582 351 480 617 655 522 359 10
1257 1468 1753 1928 1868 1979 1770 1724 1712 1644 1623 1774 1749 1574 1671 1402 1215 1483 1331 1430 1631 1324 1219 1023 847 840 824 1066 781 695 1230 884 729 889 335 323 265 214 108 394 673 977 786
1450 1686 1868 1514 1877 2020 1908 1836 1633 1541 1505 1536 1573 1469 1597 1202 906 1061 1337 1437 1323 1348 1095 1012 1178 1177 1102 919 478 247 394 415 990 605 249 118 159 522 555 640 449 378 289
1065 1179 1478 1592 1630 2182 2306 2184 2062 1751 1661 1466 1619 1557 1567 1791 661 704 571 905 984 830 921 1004 1190 974 1011 1083 431 108 49 17 48 180 206 503 561 157 27 61 95 82 132
1211 1401 1543 1702 1773 2004 2232 2243 2219 2145 2178 1860 1662 1643 1466 1421 1000 692 524 781 791 994 935 833 1127 1225 1168 1206 1157 677 587 45 7 181 303 8 0 0 0 0 89 124 8
1225 1333 1341 1513 1673 1921 2045 1949 2053 1889 2139 1981 1841 1809 1632 1662 809 719 770 947 760 774 1047 1004 1363 1409 361 223 783 659 370 0 0 0 0 0 0 0 0 1 31 56 35
743 1170 1270 1286 1402 1551 1810 1653 1613 1511 1607 1654 1765 1890 1750 1796 777 461 690 820 472 287 994 277 0 56 0 0 191 464 368 7 0 0 0 0 0 0 0 0 0 0 0
685 830 1379 1011 1073 1064 1367 1460 1433 1322 1384 1491 1450 1612 1722 1662 900 191 281 996 531 809 469 80 0 0 0 0 0 57 213 0 0 0 0 0 0 0 0 0 0 0 0
868 988 999 1056 735 834 1105 1318 1073 1015 1125 1290 1403 1435 1645 1417 842 21 50 56 729 768 45 1 0 0 0 0 0 0 0 0 0 0 0 0 0 0 0 0 0 0 0
1074 722 902 323 157 62 80 231 210 230 359 677 1141 908 512 100 14 0 0 0 13 4 4 0 0 0 0 0 0 0 0 0 0 2 0 0 0 0 0 0 0 0 0
686 733 474 120 0 0 0 0 0 2 2 0 20 49 0 0 0 1 0 1 1 1 2 1 0 0 0 1 0 0 0 0 0 0 0 0 0 0 0 0 0 0 0
626 382 83 0 1 0 0 1 0 0 0 2 2 0 0 0 0 2 1 2 3 2 1 1 0 0 0 0 0 0 0 0 0 0 0 0 0 0 0 0 0 0 0
234 61 2 1 2 2 1 2 4 0 0 0 0 0 0 0 1 1 0 2 1 2 3 3 2 0 0 0 0 0 0 0 0 0 0 0 0 0 0 0 0 0 0
13 3 2 1 3 1 3 2 0 3 0 0 0 0 0 0 0 0 0 0 0 0 0 0 0 0 0 0 0 0 0 0 0 0 0 0 0 0 0 0 0 0 0
2 1 6 2 4 1 5 4 4 1 1 1 0 0 0 0 0 0 0 0 0 0 0 0 0 0 0 0 0 0 0 0 0 0 0 0 0 0 0 0 0 0 0
1 3 4 2 2 2 3 2 1 1 1 1 0 0 0 0 0 0 0 0 0 0 0 0 0 0 0 0 0 0 0 0 0 0 0 0 0 0 0 0 0 0 0
3 4 6 0 2 22 11 3 1 1 1 2 2 1 0 0 0 0 0 0 0 0 0 0 0 0 0 0 0 0 0 0 0 0 0 0 0 0 0 0 0 0 0
2 0 8 90 79 56 27 14 9 7 0 0 0 0 0 0 0 0 0 0 0 0 0 0 0 0 0 0 0 0 0 0 0 0 0 0 0 0 0 0 0 0 0
1 0 26 8 0 0 0 0 0 0 0 0 0 0 0 0 0 0 0 0 0 0 0 0 0 0 0 0 0 1 0 0 0 0 0 0 0 0 0 0 0 0 0
1 1 0 2 1 0 0 0 0 0 0 0 0 0 0 0 0 0 0 0 0 0 0 1 5 10 13 13 11 12 11 7 0 0 0 2 1 1 1 1 1 0 4
1 0 0 0 0 0 0 0 0 0 0 0 0 0 0 0 0 0 0 0 0 1 1 3 14 19 26 22 18 15 15 8 2 0 0 0 2 0 1 0 1 0 3
0 0 0 0 0 1 0 0 0 0 0 0 0 0 0 0 0 0 1 2 1 4 10 15 17 19 21 35 23 21 0 0 0 0 0 0 0 0 0 0 0 0 0
4 10 0 5 19 8 1 0 0 1 3 2 2 3 4 7 9 10 7 6 7 12 8 6 4 0 4 8 19 2 0 0 0 0 0 5 2 3 1 0 0 1 2
CIN
-2 -2 -2 -2 -1 -1 -4 -1 -5 -1 0 -1 -1 -1 -1 -1 0 -1 -1 -4 -1 -1 -1 -3 -1 -1 -2 -2 -3 -8 -5 -2 -1 -2 -8 -35 -12 -6 -3 -1 -24 -17 0
-2 -3 -3 0 -1 -2 -1 -1 -1 -1 -1 -1 -2 0 -1 0 -1 -2 -1 -1 -1 -1 -1 -1 -1 -1 -4 -1 -3 -3 -3 -4 -7 -1 -4 -4 -6 -26 -1 -1 -1 -2 -96
-3 -3 -2 -2 -2 -1 -1 0 -1 -1 -1 -1 -1 -1 0 -1 -1 -1 -1 -1 -2 -2 -1 -3 -2 -2 -1 -2 -2 -9 -3 -6 -3 -2 0 -3 -1 -4 -15 -22 -19 -4 -5
-4 -2 -1 -1 -3 -1 -1 0 -1 -1 -1 -1 -3 -3 -13 -5 -1 -1 -2 -10 -1 -3 -2 -3 -4 -3 -2 -2 -2 -5 -7 -8 -2 -7 -1 -15 -30 -20 -18 -6 -9 -15 -74
-2 -1 -2 -1 -1 -1 -1 -1 -1 -2 -2 0 0 -2 -1 -1 -1 -1 -2 -1 -2 -1 -1 -2 -1 -5 -16 -11 -6 -2 -2 -4 -5 -7 -26 -22 -27 -16 -24 -12 -3 -2 -3
-1 -3 -2 -9 -5 -2 -3 -2 -6 -8 -7 -6 -2 -2 0 0 -4 -8 -8 -1 -2 -1 -1 -1 -1 -5 -7 -15 -51 -75 -49 -21 -1 0 -18 -37 -26 -6 -1 -2 -1 -3 -1
-23 -9 -5 -3 -5 -3 -1 -1 -1 -8 -11 -8 -3 0 0 0 -23 -17 -28 -3 -1 -1 -1 -1 -1 -2 -14 -2 -83 -129 -149 -142 -96 -28 -10 -4 -1 -31 -68 -45 -19 -10 -3
-16 -6 -7 -1 -3 -1 -1 -1 0 -2 -3 -10 -8 -2 -1 -2 -12 -36 -46 -18 -2 0 -2 -2 -1 -1 -2 -9 -1 -8 -4 -25 -51 -17 -15 -18 0 0 0 0 -7 0 -7
-5 -3 -3 -3 -4 -2 -1 -1 -1 -2 0 -8 -6 -5 -6 -1 -23 -37 -32 -2 -1 -2 -1 -1 -3 0 -81 -94 -4 -1 -1 0 0 0 0 0 0 0 0 0 -1 -1 -4
-20 -2 -1 -2 -6 -4 -1 -2 -4 -6 -5 -4 -5 -3 -11 -7 -60 -70 -44 -1 -1 -3 -7 -106 0 -109 0 0 -56 0 0 -47 0 0 0 0 0 0 0 0 0 0 0
-9 -13 -1 -12 -8 -10 -5 -4 -4 -5 -5 -5 -6 -6 -5 -4 -69 -155 -97 -7 -2 -12 -41 -81 0 0 0 0 0 -46 -2 0 0 0 0 0 0 0 0 0 0 0 0
-2 -1 -4 0 -7 -5 -1 0 0 -1 -2 -3 -3 -5 -5 -2 -63 -248 -175 -117 -9 0 -25 0 0 0 0 0 0 0 0 0 0 0 0 0 0 0 0 0 0 0 0
0 -12 -1 -30 -61 -102 -99 -35 -20 -17 -13 -1 -1 -5 -49 -146 -149 0 0 0 -127 -3 0 0 0 0 0 0 0 0 0 0 0 0 0 0 0 0 0 0 0 0 0
-2 0 -4 -79 0 0 0 0 0 0 -13 0 -39 -39 0 0 0 0 0 0 0 0 0 0 0 0 0 0 0 0 0 0 0 0 0 0 0 0 0 0 0 0 -1
0 -1 -127 0 0 0 0 0 0 0 0 0 0 0 0 0 0 0 0 0 0 0 0 0 0 0 0 0 0 0 0 0 0 0 0 0 0 0 0 0 0 0 0
-27 -137 -28 0 0 0 0 0 0 0 0 0 0 0 0 0 0 0 0 0 0 0 0 0 0 0 0 0 0 0 0 0 0 0 0 0 0 0 0 0 0 0 0
-207 0 0 0 0 0 0 0 0 0 0 0 0 0 0 0 0 0 0 0 0 0 0 0 0 0 0 0 0 0 0 0 0 0 0 0 0 0 0 0 0 0 0
0 0 0 0 0 0 0 0 0 0 0 0 0 0 0 0 0 0 0 0 0 0 0 0 0 0 0 0 0 0 0 0 0 0 0 0 0 0 0 0 0 0 0
0 -1 0 0 0 -1 0 0 0 0 0 0 0 0 0 0 0 0 0 0 0 0 0 0 0 0 0 0 0 0 0 0 0 0 0 0 0 0 0 0 0 0 0
0 -1 -1 0 -74 -20 -1 -1 0 0 0 0 0 0 0 0 0 0 0 0 0 0 0 0 0 0 0 0 0 0 0 0 0 0 0 0 0 0 0 0 0 0 0
-2 -1 -9 -2 -12 -43 -14 -2 -1 -1 0 0 0 0 0 0 0 0 0 0 0 0 0 0 0 0 0 0 0 0 0 0 0 0 0 0 0 0 0 0 0 0 0
0 0 -10 -40 0 0 0 0 0 0 0 0 0 0 0 0 0 0 0 0 0 0 0 0 0 0 0 0 0 -2 -1 0 0 0 0 0 0 0 0 0 0 -1 -1
0 0 0 0 -1 0 0 0 0 0 0 0 0 0 0 0 0 0 0 0 0 0 0 -1 -1 -1 -1 -1 -1 -2 -2 -3 -1 0 -1 -1 -1 -2 -1 -1 -1 -1 -5
0 0 0 0 0 0 0 0 0 0 0 0 0 0 0 0 0 0 0 0 0 0 -2 -2 -2 -1 -2 -1 -2 -2 0 -1 -1 -1 0 0 -1 0 -1 0 -2 0 -3
0 0 0 0 0 -32 0 0 0 0 0 0 0 0 0 0 0 0 -1 -1 -1 -1 -1 -2 0 -2 0 -1 -1 -2 0 0 0 0 0 0 0 0 0 0 0 -1 -1
-61 -60 -12 -8 -5 -1 -1 0 -1 -2 -3 -3 -1 -4 -3 -3 -2 -2 -1 -1 -1 -1 -2 -1 -1 0 -1 -2 -2 0 0 0 0 0 0 0 -1 -1 0 0 0 -1 -8
Wind_Speed
6 4 4 2 2 11 6 7 21 22 19 18 13 17 14 13 13 14 18 19 10 14 17 18 18 18 21 25 26 25 21 21 25 26 24 23 12 20 20 22 16 13 14
7 8 7 7 6 2 12 6 4 11 14 18 16 12 11 16 21 12 13 17 11 12 15 15 17 18 13 16 22 16 24 26 26 27 28 27 22 21 20 21 23 17 14
7 6 6 5 4 11 10 13 6 5 4 4 7 12 12 13 8 11 15 15 20 19 12 15 21 19 21 20 24 27 26 21 18 25 26 24 24 23 23 20 15 16 15
12 10 10 10 10 10 8 11 6 10 7 6 4 4 3 5 5 5 3 5 2 0 14 16 15 20 21 22 20 21 21 24 23 22 22 26 25 24 26 27 22 18 14
20 20 15 18 16 19 26 21 17 11 11 11 8 6 6 7 3 3 4 7 2 5 15 19 17 21 22 22 22 21 21 20 22 22 23 24 25 25 22 14 17 19 18
30 30 25 18 19 19 19 19 21 23 22 19 12 14 9 7 6 8 4 6 5 11 17 18 20 20 20 19 19 19 21 21 20 20 22 23 24 21 21 22 21 22 22
25 31 29 32 23 14 21 18 17 16 18 15 13 13 11 12 14 10 10 11 12 15 17 19 22 24 23 20 18 17 17 18 19 21 23 23 23 23 23 23 23 24 23
31 32 33 33 24 18 23 21 24 19 16 16 15 14 14 13 12 12 13 14 15 16 19 21 19 21 21 18 13 14 15 18 21 21 22 21 22 23 22 21 22 22 19
26 30 30 26 25 21 19 26 20 17 14 17 19 18 17 17 15 12 13 16 16 17 18 20 19 19 19 18 15 13 14 18 20 20 20 18 20 22 23 22 21 21 20
31 33 30 31 30 30 32 29 25 26 23 19 20 19 18 20 18 15 13 15 17 17 16 18 18 18 18 16 18 17 18 17 18 17 16 19 20 21 22 21 22 21 22
30 31 31 30 32 33 35 35 32 27 28 26 25 21 20 17 18 15 12 14 17 16 16 17 19 17 16 18 20 24 20 14 16 17 18 18 19 19 19 19 20 20 21
29 27 27 25 26 28 31 33 34 31 32 29 28 23 20 20 15 13 14 16 18 15 15 16 16 16 17 17 16 15 13 14 15 15 16 16 16 17 17 18 19 20 20
27 25 22 21 23 24 26 27 28 29 28 30 25 22 19 19 19 16 16 15 13 12 13 12 12 13 14 13 13 14 13 11 12 15 15 15 16 16 15 16 17 19 19
26 21 19 20 21 21 22 23 24 26 25 25 25 24 23 22 20 17 14 11 9 7 7 9 11 13 14 13 11 11 11 10 12 13 13 13 14 15 17 20 19 19 18
22 18 16 17 19 19 20 22 22 22 22 23 22 21 20 20 19 16 13 12 8 6 6 9 11 10 8 11 12 10 10 12 13 14 14 15 17 18 19 21 21 19 20
19 15 13 15 16 17 18 20 21 22 20 16 14 15 20 18 15 13 11 2 1 2 5 6 6 8 8 11 8 11 13 13 14 14 16 18 19 19 19 17 17 19 21
16 11 10 11 13 13 14 16 16 17 16 13 9 7 7 6 4 1 2 2 4 5 7 9 10 8 9 11 10 11 12 13 15 15 17 18 18 16 17 19 22 21 22
10 7 8 10 9 8 9 11 12 12 11 11 12 12 14 14 13 12 10 10 6 7 10 10 9 8 9 11 11 13 13 14 15 16 16 16 17 18 19 19 21 21 21
4 6 6 5 2 4 6 8 10 10 12 13 13 14 14 11 10 12 9 7 4 7 10 10 8 9 10 12 13 14 15 15 15 15 16 17 17 18 19 19 18 21 19
5 3 2 1 1 3 5 6 8 9 10 8 8 9 8 9 11 9 5 5 7 10 12 13 13 14 14 14 14 14 15 15 15 16 17 17 18 18 19 19 20 20 21
4 2 5 3 4 3 3 6 6 6 7 8 8 9 10 8 6 7 7 10 13 14 14 14 15 14 14 14 14 14 15 15 16 16 16 17 17 18 18 19 20 20 21
4 5 8 9 7 5 1 5 7 7 8 7 7 7 5 7 7 8 10 10 11 12 13 13 13 12 12 12 13 14 14 15 16 16 16 16 16 17 19 19 20 20 21
1 2 11 11 4 2 1 1 3 5 5 7 7 7 6 6 7 8 9 10 11 12 12 11 11 11 11 11 11 12 13 14 16 18 17 16 16 18 20 20 21 21 21
4 3 4 4 8 6 4 2 3 4 2 2 3 6 5 6 7 8 9 10 10 10 10 10 10 9 8 9 9 10 11 13 15 17 18 18 18 17 19 20 19 20 19
2 5 4 3 10 6 2 2 2 2 4 5 6 7 7 7 8 9 10 10 10 10 10 10 10 9 9 9 10 11 11 11 16 17 16 18 18 19 19 19 19 19 18
2 1 2 4 4 5 6 6 5 2 4 6 6 7 8 9 9 10 11 11 10 11 13 12 14 15 16 12 7 6 6 8 10 12 15 16 18 18 19 18 18 16 16
Wind_Direction
254 253 271 253 199 279 279 288 267 273 282 284 296 288 299 307 311 310 302 301 335 320 317 321 330 332 319 297 292 285 318 320 283 280 310 346 354 353 344 343 15 29 24
253 263 268 277 281 241 280 275 273 290 289 281 287 295 302 297 286 308 311 304 324 326 323 325 328 331 352 344 323 342 308 306 302 297 298 311 340 341 340 341 324 356 14
243 246 253 254 256 281 281 281 275 275 266 275 288 290 296 301 314 309 301 305 299 305 329 323 312 322 323 328 317 301 300 322 328 316 315 324 326 337 332 342 359 350 1
266 261 268 272 275 276 278 282 269 282 274 198 242 258 236 304 305 312 318 326 303 151 319 321 325 316 320 321 328 323 322 318 320 325 328 317 324 331 326 315 336 350 4
262 269 274 274 276 276 271 277 280 279 279 276 268 255 269 288 263 229 301 317 320 319 315 314 321 316 319 319 319 322 323 329 326 327 326 327 327 329 337 358 352 349 351
260 263 272 273 277 279 279 280 283 277 278 279 276 276 264 268 265 291 274 309 312 315 313 315 313 317 321 324 322 321 320 325 328 330 329 329 329 331 338 340 342 339 337
273 264 268 265 277 273 277 277 284 278 277 275 274 275 268 276 285 279 279 290 301 307 309 311 310 308 315 321 325 328 331 331 331 329 327 330 332 330 331 334 334 334 336
269 267 265 267 279 281 275 275 277 279 273 271 272 274 276 276 275 276 279 285 293 300 303 305 310 310 315 318 326 332 332 330 329 330 332 333 335 328 327 338 337 338 345
275 273 273 280 281 283 276 275 277 272 263 268 269 274 275 278 278 271 276 285 288 294 300 304 306 310 317 320 320 322 329 331 334 338 338 343 335 333 330 335 339 342 343
275 271 276 275 279 279 276 278 280 279 278 272 269 268 268 274 278 275 270 284 289 292 301 307 310 312 316 321 316 317 316 323 333 342 348 339 338 336 336 342 341 341 336
281 277 278 278 276 277 276 278 281 282 279 276 272 268 268 266 278 275 272 281 290 296 298 304 309 311 314 313 314 311 315 326 331 336 337 338 340 341 346 352 347 348 340
286 283 282 286 283 284 284 282 283 284 277 274 270 267 268 273 278 281 283 286 293 294 299 308 313 317 315 318 321 328 331 328 330 331 340 345 348 347 353 354 349 344 347
288 286 284 291 291 292 292 293 292 287 282 274 268 264 268 278 285 289 288 291 296 300 305 311 321 324 326 329 324 329 333 337 338 335 338 343 344 348 358 354 346 349 350
293 292 288 292 295 300 303 302 297 291 290 281 275 272 273 278 284 285 283 288 298 317 329 325 328 330 332 330 335 344 335 347 353 354 355 354 355 355 357 345 345 348 348
300 297 295 295 296 301 306 305 303 301 298 290 283 280 278 279 280 280 275 276 283 295 308 325 331 347 9 19 6 27 16 7 358 356 0 355 345 340 349 347 348 355 351
305 301 294 295 300 303 307 310 314 305 308 307 305 291 287 287 285 282 287 292 152 353 350 5 22 5 346 17 25 19 18 7 6 5 350 344 343 348 354 12 10 1 355
307 297 295 300 306 311 317 319 322 330 337 335 339 330 320 323 331 342 112 54 78 57 53 42 37 38 41 24 9 5 1 359 356 355 358 356 356 9 8 3 354 355 356
313 302 297 300 312 332 342 347 353 356 8 22 32 62 76 80 82 91 87 82 68 53 59 48 30 27 22 14 18 19 17 8 9 15 26 20 11 3 3 3 1 358 358
327 306 301 297 322 13 31 33 31 32 44 55 61 62 68 75 76 76 67 61 35 27 48 57 36 19 21 26 32 46 41 35 30 24 18 16 14 12 9 9 11 9 6
308 298 285 188 154 69 61 52 54 54 52 50 53 64 68 66 69 74 330 4 21 50 56 60 57 60 57 55 46 36 33 33 31 24 17 18 17 13 14 12 7 5 5
305 257 275 231 258 128 94 84 65 48 51 58 64 81 92 59 41 41 36 57 70 73 69 67 70 64 58 53 47 42 37 31 29 27 27 24 20 17 15 13 10 8 7
288 266 266 261 252 256 126 83 80 75 72 62 58 67 11 326 31 37 47 47 48 59 64 64 60 59 55 49 44 36 32 30 32 29 26 23 20 17 12 10 7 5 4
258 234 268 248 209 176 267 106 335 66 62 67 68 49 6 18 25 34 40 44 54 59 57 58 51 50 48 42 39 34 30 30 25 16 19 16 15 11 7 4 3 2 7
169 151 96 237 238 245 244 2 1 28 31 20 336 326 339 358 12 14 30 40 45 44 43 35 35 42 46 35 36 31 26 25 25 24 18 15 12 12 6 6 8 7 7
103 146 144 187 238 247 243 27 7 339 319 314 326 333 359 354 7 25 24 31 34 32 27 23 24 22 12 8 2 8 30 28 14 16 22 16 12 9 9 7 8 7 10
48 210 166 141 232 236 240 249 264 343 40 60 54 46 25 15 20 20 19 18 25 18 3 9 356 347 342 354 9 20 47 30 20 17 15 17 11 10 9 8 8 9 15